Vorticity
11 12 11 12 11 9 8 9 11 10 6 4 5 3 5 7 6 12 7 6 8 3 9 1 13 8 9 12 12 12 12 9 9 8 8 8 9 10 4 3 3 10 6 7 9 10 9
9 9 10 9 10 10 8 7 9 14 13 11 10 6 4 5 5 6 9 6 6 12 13 7 8 10 8 9 13 12 11 11 9 9 6 9 10 7 5 5 7 8 7 9 8 13 13
8 7 10 22 14 15 14 15 13 10 12 10 11 10 9 6 6 7 3 8 9 13 10 6 10 9 8 7 10 10 12 13 12 9 6 8 10 7 7 8 7 10 7 8 8 7 6
7 5 11 14 17 14 14 11 12 10 8 9 10 7 7 8 5 5 5 1 11 5 10 12 9 9 8 12 10 11 14 10 10 9 8 6 9 7 9 10 8 9 7 6 4 5 3
9 4 5 8 16 11 7 4 -0 3 10 8 5 11 9 2 10 3 4 6 4 14 13 15 7 10 8 9 10 12 13 13 11 10 9 10 10 8 9 6 8 9 7 6 8 5 5
5 6 5 5 14 13 7 -2 10 5 29 33 33 29 37 27 16 8 -1 10 26 13 13 8 5 11 7 8 10 9 11 14 12 9 9 7 11 9 7 9 10 9 7 8 6 6 7
4 3 5 8 12 12 1 -4 36 29 43 39 40 35 35 41 46 32 21 21 -18 16 8 3 9 12 8 6 9 8 11 14 13 12 8 9 9 5 12 9 11 10 9 10 11 9 7
2 2 5 9 13 9 3 38 30 30 28 23 31 34 34 31 32 40 28 18 19 -10 5 10 8 8 8 7 7 10 9 12 14 13 14 13 6 12 11 13 13 11 11 11 7 8 9
2 2 6 8 12 8 8 45 21 29 24 31 27 27 32 34 30 21 25 30 1 15 3 15 9 6 10 7 9 6 11 12 13 12 14 10 10 13 10 10 10 10 8 5 6 6 3
2 3 4 5 10 6 41 29 35 26 37 28 16 4 29 43 22 20 52 1 4 -2 15 11 11 7 10 6 6 9 7 12 13 14 14 12 7 9 8 5 6 3 4 3 3 3 2
2 3 2 7 10 3 48 11 39 37 20 15 11 8 1 50 24 34 21 -6 15 7 12 8 6 6 11 6 7 6 10 9 9 8 9 4 4 5 6 4 3 3 0 3 5 5 3
4 4 3 9 9 15 39 18 41 33 12 17 -20 19 -1 55 24 43 13 -6 -3 -4 7 14 8 10 11 7 6 7 7 8 6 6 5 7 5 4 3 3 4 6 4 3 3 4 6
3 3 4 7 6 38 24 31 48 30 9 3 9 12 23 50 26 44 -44 15 9 -1 -5 13 12 10 6 12 7 4 7 3 4 4 4 5 2 3 5 5 4 3 5 6 7 6 5
5 3 4 7 5 54 16 41 48 20 7 9 5 4 34 42 31 23 -5 7 4 1 1 14 22 11 9 12 10 4 3 4 4 4 4 5 4 6 4 3 3 6 5 8 8 8 9
4 2 6 6 8 56 16 45 47 16 9 5 11 35 18 27 43 12 -18 19 6 7 1 21 2 19 10 5 8 12 10 9 8 8 6 6 5 5 2 7 5 7 5 1 10 14 7
5 3 7 6 17 45 19 45 12 14 14 5 19 56 13 38 34 37 -19 -9 23 11 7 -2 18 6 24 7 5 9 7 7 6 6 5 5 4 5 9 8 7 3 10 16 9 9 8
5 4 5 8 24 42 15 53 5 5 20 4 33 26 37 44 20 -15 -0 1 20 3 2 16 10 9 12 15 14 2 3 3 4 2 3 6 10 10 9 5 13 14 12 4 8 18 5
4 3 3 9 27 39 15 28 16 12 18 14 29 5 43 39 5 10 2 21 -4 16 2 -18 17 7 0 18 15 6 4 3 6 10 12 10 7 6 16 12 8 10 11 10 4 9 5
3 3 3 8 25 41 33 3 21 25 10 23 16 64 37 16 -20 10 4 18 12 4 1 15 17 4 7 7 6 11 14 12 11 11 6 9 14 13 4 10 11 13 9 11 10 4 17
4 3 3 9 20 44 62 7 2 -6 26 22 42 46 29 -4 15 8 15 5 11 -6 17 11 14 5 2 -2 -1 -1 7 11 6 5 6 13 7 11 12 9 9 5 10 10 19 10 6
3 4 4 7 16 62 29 1 11 4 -1 50 28 14 -1 21 -0 12 11 -6 0 16 9 13 18 10 1 7 12 13 3 5 5 7 12 7 10 16 12 8 10 12 13 25 14 12 3
4 5 6 8 15 52 18 3 7 10 17 37 25 -2 2 11 4 17 10 3 -4 5 5 14 17 11 5 -0 -1 3 3 3 6 10 12 7 19 8 11 12 14 17 21 12 9 17 19
4 5 7 8 17 35 64 -3 16 34 23 54 21 6 -9 6 16 -0 -4 2 6 5 3 6 20 20 9 8 7 9 5 5 7 11 9 14 15 14 3 13 18 12 22 16 14 14 16
4 6 7 10 28 37 43 -1 -6 27 21 18 0 -6 -3 -4 5 12 2 4 4 2 2 4 14 17 20 13 11 10 8 6 12 12 8 11 9 16 10 8 5 5 12 10 14 19 18
5 5 6 7 4 49 17 -9 -10 11 10 22 9 10 2 11 -8 6 3 3 6 6 10 18 14 16 18 14 10 6 6 4 11 6 19 3 4 7 -0 7 6 4 4 9 12 22 22
7 4 4 9 5 14 58 5 15 25 18 3 7 5 11 9 11 2 1 2 12 14 20 15 13 11 10 10 9 5 5 11 13 10 9 1 7 10 4 15 7 8 4 2 26 6 -2
6 6 5 6 15 6 24 44 -6 -9 3 33 23 6 6 -8 11 6 12 19 17 9 11 10 8 8 10 11 10 8 4 10 5 10 4 4 8 4 5 5 5 -4 4 3 -1 2 -2
5 8 4 7 4 12 5 39 35 3 -9 -10 15 26 11 6 15 15 15 11 8 9 11 11 11 10 8 7 11 11 8 9 7 5 3 8 8 4 2 5 6 7 2 3 5 4 3
3 6 6 5 6 4 12 19 26 44 6 -5 -22 27 6 -6 17 14 15 11 17 19 2 7 9 7 7 11 9 6 12 12 9 5 1 6 8 4 4 5 7 6 7 4 5 9 9
Height
5705 5698 5691 5684 5677 5671 5665 5661 5657 5654 5649 5644 5642 5640 5639 5640 5641 5643 5644 5645 5649 5652 5655 5658 5662 5665 5669 5674 5679 5685 5690 5696 5701 5707 5711 5716 5721 5726 5731 5733 5737 5741 5744 5746 5749 5751 5754
5701 5694 5685 5677 5669 5662 5655 5649 5645 5642 5639 5636 5632 5629 5628 5627 5629 5631 5632 5635 5639 5642 5646 5650 5653 5657 5661 5667 5671 5676 5681 5686 5692 5697 5703 5707 5712 5718 5724 5726 5731 5733 5737 5740 5742 5745 5747
5697 5689 5681 5672 5661 5653 5646 5639 5633 5628 5625 5622 5619 5617 5615 5615 5617 5618 5621 5624 5628 5633 5636 5640 5644 5648 5653 5657 5663 5668 5673 5678 5684 5690 5695 5700 5705 5710 5716 5719 5723 5726 5729 5733 5735 5737 5740
5691 5682 5673 5663 5654 5644 5635 5627 5620 5613 5607 5603 5600 5598 5597 5598 5600 5605 5608 5614 5618 5623 5627 5632 5637 5640 5645 5650 5655 5660 5666 5671 5676 5682 5686 5691 5696 5701 5707 5713 5715 5718 5722 5724 5727 5730 5733
5684 5674 5663 5652 5642 5632 5623 5613 5603 5592 5581 5571 5567 5568 5570 5574 5580 5587 5593 5600 5607 5613 5618 5623 5628 5633 5638 5644 5649 5653 5659 5663 5669 5675 5680 5685 5690 5695 5700 5704 5708 5711 5714 5717 5720 5722 5724
5677 5665 5653 5641 5630 5618 5607 5595 5581 5566 5550 5537 5528 5527 5532 5543 5552 5565 5575 5586 5595 5600 5606 5612 5619 5626 5633 5638 5642 5647 5651 5657 5663 5669 5674 5679 5684 5689 5692 5697 5702 5704 5707 5709 5712 5715 5717
5668 5655 5642 5630 5615 5601 5587 5571 5553 5531 5518 5507 5502 5499 5501 5508 5522 5539 5557 5571 5584 5588 5594 5606 5614 5618 5625 5631 5635 5641 5645 5651 5658 5664 5668 5673 5678 5684 5686 5690 5694 5698 5701 5703 5706 5707 5710
5659 5646 5631 5616 5599 5583 5567 5548 5524 5509 5498 5490 5485 5482 5483 5489 5499 5515 5534 5554 5569 5580 5591 5599 5604 5611 5617 5624 5630 5635 5642 5648 5653 5659 5662 5670 5674 5677 5681 5684 5688 5691 5694 5696 5698 5700 5702
5651 5637 5622 5603 5586 5569 5550 5525 5506 5493 5485 5479 5475 5473 5473 5477 5488 5500 5520 5547 5561 5573 5581 5589 5597 5604 5612 5619 5625 5631 5638 5642 5647 5652 5659 5664 5669 5673 5676 5679 5683 5685 5687 5689 5690 5691 5694
5643 5629 5612 5592 5573 5553 5532 5510 5494 5482 5477 5474 5472 5471 5470 5473 5484 5494 5514 5535 5551 5564 5574 5584 5592 5600 5608 5614 5621 5627 5632 5639 5644 5650 5655 5660 5665 5668 5672 5675 5677 5680 5681 5683 5684 5684 5685
5635 5620 5603 5582 5561 5540 5518 5499 5485 5476 5474 5472 5472 5471 5472 5473 5478 5491 5506 5526 5543 5560 5568 5576 5584 5594 5602 5610 5619 5623 5630 5636 5642 5647 5654 5658 5661 5665 5668 5671 5673 5675 5677 5676 5675 5674 5675
5629 5612 5594 5573 5551 5529 5508 5492 5479 5472 5472 5472 5470 5469 5469 5471 5477 5486 5503 5521 5537 5552 5558 5569 5581 5590 5599 5606 5614 5621 5627 5633 5639 5645 5649 5653 5658 5661 5664 5666 5667 5669 5668 5667 5665 5663 5663
5625 5606 5588 5566 5543 5521 5501 5485 5474 5470 5471 5471 5469 5468 5465 5468 5475 5484 5499 5514 5532 5544 5558 5568 5577 5587 5596 5604 5612 5619 5625 5631 5637 5641 5646 5649 5653 5656 5658 5659 5660 5660 5660 5656 5653 5652 5654
5621 5602 5583 5561 5537 5514 5499 5482 5472 5470 5472 5471 5470 5468 5465 5469 5477 5485 5502 5518 5532 5543 5557 5566 5575 5584 5593 5601 5608 5615 5622 5628 5633 5638 5643 5645 5648 5650 5652 5653 5653 5652 5650 5648 5642 5638 5638
5618 5599 5579 5557 5534 5512 5498 5483 5475 5474 5474 5473 5471 5468 5468 5472 5481 5493 5508 5521 5535 5546 5558 5567 5574 5582 5590 5598 5607 5613 5620 5625 5630 5634 5638 5640 5643 5645 5645 5645 5645 5643 5642 5636 5632 5631 5623
5615 5597 5578 5555 5533 5513 5501 5490 5484 5481 5478 5475 5472 5469 5471 5474 5483 5499 5512 5524 5536 5549 5557 5566 5573 5583 5590 5598 5605 5611 5617 5622 5626 5630 5632 5636 5637 5639 5639 5639 5637 5633 5631 5628 5624 5618 5610
5614 5596 5578 5557 5535 5517 5507 5498 5493 5487 5482 5478 5475 5474 5474 5479 5491 5506 5520 5529 5539 5549 5559 5567 5573 5581 5589 5595 5602 5608 5613 5618 5622 5625 5628 5630 5632 5636 5634 5631 5627 5626 5623 5620 5614 5609 5601
5613 5597 5580 5560 5540 5521 5513 5505 5499 5492 5487 5483 5481 5480 5479 5489 5506 5516 5524 5533 5544 5553 5562 5568 5573 5580 5586 5593 5599 5604 5610 5615 5618 5621 5625 5626 5628 5629 5626 5622 5620 5618 5617 5611 5604 5602 5590
5612 5597 5581 5564 5544 5527 5518 5511 5505 5499 5493 5488 5485 5485 5490 5501 5512 5522 5532 5541 5549 5557 5564 5569 5574 5580 5585 5591 5597 5602 5608 5612 5616 5619 5621 5622 5622 5621 5620 5618 5613 5612 5608 5602 5598 5589 5587
5612 5600 5585 5569 5550 5533 5523 5518 5513 5508 5502 5497 5494 5497 5506 5515 5521 5529 5538 5547 5554 5561 5565 5570 5574 5579 5585 5590 5596 5601 5606 5610 5613 5615 5616 5616 5616 5614 5614 5611 5605 5604 5603 5597 5592 5583 5579
5612 5601 5587 5573 5557 5540 5531 5526 5522 5518 5514 5511 5511 5515 5523 5528 5534 5539 5546 5552 5558 5563 5567 5571 5575 5579 5584 5589 5594 5599 5603 5607 5609 5611 5611 5611 5611 5610 5607 5606 5604 5601 5595 5591 5585 5581 5570
5612 5603 5590 5576 5562 5549 5541 5536 5531 5527 5523 5524 5525 5529 5533 5539 5543 5546 5551 5557 5562 5565 5569 5571 5574 5578 5582 5587 5592 5597 5601 5604 5606 5607 5607 5608 5608 5605 5604 5602 5601 5597 5591 5587 5583 5576 5567
5614 5603 5592 5578 5565 5556 5549 5546 5541 5537 5534 5535 5538 5540 5543 5546 5550 5553 5558 5562 5564 5567 5569 5572 5574 5578 5581 5587 5592 5597 5600 5602 5603 5604 5605 5605 5604 5603 5603 5601 5598 5594 5589 5585 5580 5573 5565
5613 5604 5595 5583 5569 5561 5557 5556 5553 5550 5548 5548 5551 5551 5553 5556 5557 5559 5562 5564 5566 5569 5571 5572 5574 5577 5582 5587 5591 5595 5597 5599 5601 5602 5603 5603 5602 5602 5602 5600 5597 5593 5588 5584 5580 5574 5567
5613 5605 5597 5587 5576 5568 5564 5562 5560 5560 5559 5559 5559 5559 5559 5561 5562 5563 5565 5566 5567 5569 5571 5572 5574 5578 5582 5585 5590 5593 5595 5598 5599 5600 5600 5602 5601 5601 5601 5598 5596 5593 5590 5587 5582 5577 5570
5611 5604 5597 5591 5580 5572 5567 5566 5565 5563 5563 5563 5564 5563 5562 5564 5564 5565 5565 5565 5567 5568 5570 5573 5576 5578 5581 5584 5588 5591 5593 5594 5596 5598 5599 5600 5600 5601 5599 5598 5595 5594 5592 5588 5585 5581 5575
5609 5603 5597 5593 5585 5575 5570 5566 5565 5566 5565 5565 5565 5564 5565 5565 5566 5566 5565 5565 5566 5568 5571 5573 5575 5578 5580 5582 5586 5588 5590 5592 5594 5595 5597 5598 5599 5600 5598 5596 5596 5595 5594 5591 5589 5588 5581
5605 5600 5595 5591 5586 5578 5571 5565 5563 5563 5564 5565 5564 5563 5564 5565 5565 5564 5564 5565 5565 5568 5570 5573 5575 5577 5579 5581 5584 5586 5588 5590 5591 5592 5594 5597 5598 5598 5597 5595 5596 5595 5594 5593 5590 5587 5584
5600 5595 5590 5586 5582 5576 5570 5565 5561 5558 5558 5559 5560 5561 5561 5562 5564 5564 5564 5565 5567 5568 5570 5571 5574 5576 5577 5579 5581 5583 5585 5587 5588 5590 5591 5595 5596 5596 5596 5594 5594 5593 5593 5592 5590 5589 5587